Regional Weather Roundup
Issued by NWS

Home | Current Version | Previous Version | Text Only | Print | Product List | Glossary On
Versions: 1 2 3 4 5 6 7 8 9 10 11 12 13 14 15 16 17 18 19 20 21 22 23 24 25 26 27 28 29 30 31 32 33 34 35 36 37 38 39 40 41 42 43 44 45 46 47 48 49 50
000
ASUS44 KBMX 191110
RWRAL

ALABAMA REGIONAL WEATHER ROUNDUP
NATIONAL WEATHER SERVICE BIRMINGHAM AL
600 AM CDT SAT AUG 19 2017

NOTE: "FAIR" INDICATES FEW OR NO CLOUDS BELOW 12,000 FEET
WITH NO SIGNIFICANT WEATHER AND/OR OBSTRUCTIONS TO VISIBILITY.

THE REMARK "TC" DENOTES TEMPERATURE IN DEGREES CELSIUS.

ALZ001>011-014-016>018-020-191200-
NORTH ALABAMA

CITY           SKY/WX    TMP DP  RH WIND       PRES   REMARKS
MUSCLE SHOALS  CLEAR     67  65  93 CALM      30.00R
HUNTSVILLE     CLEAR     68  68 100 CALM      30.00S
DECATUR        CLEAR     63  63 100 CALM      30.01R FOG
HALEYVILLE     FAIR      66  66 100 CALM      30.03S
GADSDEN        CLEAR     66  66 100 CALM      30.02S
$$

ALZ012-013-022-023-030>036-040>044-191200-
WEST CENTRAL ALABAMA

CITY           SKY/WX    TMP DP  RH WIND       PRES   REMARKS
TUSCALOOSA     PTCLDY    73  73 100 CALM      30.00S
DEMOPOLIS      FOG      N/A N/A N/A CALM      29.98F VSB 3/4
$$

ALZ015-024>026-033>036-041>044-191200-
CENTRAL ALABAMA

CITY           SKY/WX    TMP DP  RH WIND       PRES   REMARKS
BIRMINGHAM     PTCLDY    71  69  93 CALM      30.04R
MONTGOMERY     CLEAR     74  70  87 CALM      29.99S
SHELBY CO ARPT CLEAR     71  71 100 CALM      30.01S
MAXWELL AFB    CLEAR     72  72 100 CALM      29.98S
GREENVILLE     FAIR      75  71  87 N3        29.99S
SELMA          FAIR      72  70  94 CALM      29.98S
PRATTVILLE     FAIR      69  69 100 CALM      29.98S
BESSEMER       FAIR      68  67  96 CALM      30.03R
TALLADEGA      FAIR     N/A N/A N/A MISG      30.02S
PELL CITY      SUNNY     66  66 100 CALM      30.01S
MARION         FAIR      72  72 100 CALM      29.99R FOG
SYLACAUGA      FAIR      68  68 100 CALM      30.02S
$$

ALZ019-021-028-029-037-038-045>048-191200-
EAST CENTRAL ALABAMA

CITY           SKY/WX    TMP DP  RH WIND       PRES   REMARKS
ANNISTON       CLEAR     68  66  93 CALM      30.01S
ALEXANDER CITY CLEAR     68  67  97 CALM      30.01S
AUBURN         CLEAR     71  69  93 CALM      30.02R
$$

ALZ051>064-191200-
SOUTHWEST ALABAMA

CITY           SKY/WX    TMP DP  RH WIND       PRES   REMARKS
MOBILE         PTCLDY    74  72  93 CALM      30.00S
BROOKLEY FIELD CLEAR     76  75  97 CALM      29.99F
EVERGREEN      CLEAR     73  71  93 CALM      29.99S
$$

ALZ049-050-065>069-191200-
SOUTHEAST ALABAMA

CITY           SKY/WX    TMP DP  RH WIND       PRES   REMARKS
DOTHAN         PTCLDY    75  74  96 NW5       30.02S
OZARK          NOT AVBL
TROY           CLEAR     71  71 100 CALM      30.00R
EUFAULA        FAIR      70  69  97 CALM      29.98S
$$



USA.gov is the U.S. government's official web portal to all federal, state and local government web resources and services.